Regional Weather Roundup
Issued by NWS

Home | Current Version | Previous Version | Text Only | Print | Product List | Glossary Off
Versions: 1 2 3 4 5 6 7 8 9 10 11 12 13 14 15 16 17 18 19 20 21 22 23 24 25 26 27 28 29 30 31 32 33 34 35 36 37 38 39 40 41 42 43 44 45 46 47 48 49 50

000
ASUS43 KLMK 282310
RWRKY
KENTUCKY REGIONAL WEATHER ROUNDUP
NATIONAL WEATHER SERVICE LOUISVILLE KY
600 PM EST SAT FEB 28 2015

NOTE "FAIR" INDICATES FEW OR NO CLOUDS BELOW 12,000 FEET
WITH NO SIGNIFICANT WEATHER AND/OR OBSTRUCTIONS TO VISIBILITY.

KYZ001>023-026-027-061>063-070>075-010000-
WESTERN AND SOUTH CENTRAL KENTUCKY

CITY           SKY/WX    TMP DP  RH WIND       PRES   REMARKS
PADUCAH        CLOUDY    34  18  52 E8        30.45F WCI  27
HENDERSON      CLOUDY    34  18  51 NE6       30.48F WCI  29
OWENSBORO      CLOUDY    36  17  46 E9        30.48F WCI  29
HOPKINSVILLE   CLOUDY    35  23  60 NE5       30.45F WCI  31
BOWLING GREEN  MOCLDY    38  21  50 NE8       30.48F WCI  32
GLASGOW        MOCLDY    37  22  55 NE6       30.46F WCI  32
$$

KYZ024-025-028>034-038-045-046-053-010000-
NORTH CENTRAL KENTUCKY

CITY           SKY/WX    TMP DP  RH WIND       PRES   REMARKS
LOUISVILLE/SDF CLOUDY    35  16  45 E7        30.51F WCI  29
LOUISVILLE/LOU CLOUDY    34  13  41 E7        30.51F WCI  28
FORT KNOX      MOCLDY    35  15  44 E8        30.47S WCI  28
$$

KYZ035>037-039>044-047>052-055>060-089>105-010000-
NORTHEAST KENTUCKY

CITY           SKY/WX    TMP DP  RH WIND       PRES   REMARKS
LEXINGTON      CLOUDY    32  18  56 NE8       30.51F WCI  25
COVINGTON      CLOUDY    28  12  51 E8        30.55S WCI  20
FRANKFORT        N/A     32  16  51 E6        30.50F WCI  26
$$

KYZ054-064>069-076>088-106>120-010000-
SOUTHEAST KENTUCKY

CITY           SKY/WX    TMP DP  RH WIND       PRES   REMARKS
JACKSON        CLOUDY    38  18  44 CALM      30.51R
LONDON         PTCLDY    42  18  37 N3        30.49S
SOMERSET       PTCLDY    41  21  45 E3        30.50S
MIDDLESBORO    PTCLDY    44  24  45 CALM      30.50S
MONTICELLO     PTCLDY    43  25  49 NE8       30.49F
$$



USA.gov is the U.S. government's official web portal to all federal, state and local government web resources and services.